GFSFLT1_700_spd_132.txt.gz
Wind_Speed
11 14 30 38 37 32 27 22 20 17 12 11 11 16 17 21 20 19 18 15 17 12 13 13 12 11 14 12 16 15 14 12 11
7 17 17 29 36 33 26 24 25 23 17 14 12 12 18 22 22 19 19 17 17 16 15 15 14 14 13 13 13 13 14 14 16
6 12 14 18 30 34 30 29 26 25 24 19 17 16 15 21 25 22 22 21 19 17 15 15 17 14 13 15 15 16 15 14 15
7 10 13 10 17 23 33 33 32 32 29 25 19 17 13 17 25 26 26 24 22 19 18 16 15 14 14 14 14 15 15 14 14
9 7 14 15 17 20 28 35 35 33 32 31 27 23 19 17 20 27 29 28 25 22 19 19 17 17 16 17 17 16 15 15 16
3 8 12 14 16 14 22 36 35 34 37 31 33 27 25 22 22 24 31 30 28 25 23 22 20 19 17 16 16 15 15 16 15
11 12 13 14 15 13 16 22 31 42 40 40 40 35 34 29 26 26 27 32 31 29 27 25 24 21 19 19 18 17 16 15 15
15 16 17 14 13 16 20 23 24 27 35 43 44 38 38 38 27 26 27 31 33 33 30 27 26 25 22 21 20 19 18 18 18
18 21 24 21 19 19 14 19 25 29 38 42 47 49 43 42 41 29 26 30 32 31 27 24 26 25 23 22 19 19 19 20 20
19 19 23 19 19 15 18 26 26 24 30 42 46 47 29 37 42 34 31 32 32 32 31 29 28 27 24 22 21 20 20 20 20
18 20 23 25 21 19 21 25 28 14 18 30 38 41 39 38 45 39 35 33 33 31 30 32 31 28 25 23 22 20 21 21 23
19 19 18 19 17 19 21 28 31 30 23 24 35 35 32 35 47 47 41 36 36 35 34 33 31 28 26 23 21 22 24 25 26
13 7 9 13 10 13 15 9 4 9 19 23 24 28 31 37 35 43 45 40 39 38 35 34 31 30 28 24 22 22 26 28 29
19 12 10 9 7 4 0 3 3 8 7 15 18 20 19 28 27 28 43 38 40 38 37 38 38 37 32 27 26 25 28 26 23
25 19 13 11 9 5 3 2 5 7 6 11 8 25 20 25 34 38 44 34 27 34 33 29 38 36 35 30 28 23 25 18 20
15 16 15 12 9 8 9 9 5 6 8 10 6 8 14 24 26 33 44 45 31 23 23 23 17 22 19 15 11 10 8 9 4
13 15 13 11 9 8 9 10 7 12 9 8 5 12 19 21 21 29 29 17 16 24 14 8 11 13 13 11 11 12 10 7 4
12 11 10 8 5 4 6 7 11 7 13 17 13 20 23 26 27 32 28 21 21 20 15 11 14 14 13 12 11 11 9 7 6
13 9 6 4 0 2 3 7 13 10 7 11 14 13 14 15 11 13 20 18 18 16 11 10 12 10 9 9 7 5 4 6 6
8 7 6 5 4 6 10 7 10 13 14 14 11 9 13 14 10 12 9 14 14 9 9 11 11 10 10 10 10 9 7 6 6

GFSFLT1_700_spd_135.txt.gz
Wind_Speed
14 17 13 31 38 37 29 22 20 15 14 8 8 5 11 15 18 17 15 14 17 16 15 13 14 13 15 19 19 20 20 20 18
8 13 12 16 33 39 36 27 26 19 17 14 10 5 8 15 18 17 16 17 17 17 16 17 18 16 15 17 18 20 20 18 17
4 8 11 14 19 29 33 31 20 21 24 21 18 13 10 11 16 18 18 21 21 20 18 16 17 16 15 14 16 17 18 16 17
7 6 10 7 9 16 21 27 31 25 23 27 30 18 16 12 13 19 20 21 22 20 18 16 16 17 17 16 17 18 17 17 18
10 8 11 18 10 12 16 18 25 31 27 24 29 41 19 17 15 15 20 22 22 23 22 20 19 20 20 20 18 18 18 17 18
12 12 8 13 15 15 17 21 24 23 24 30 30 31 34 25 23 18 15 19 23 25 26 23 22 23 22 21 19 19 19 19 21
11 12 11 11 15 17 16 16 16 21 28 27 33 36 36 35 31 26 21 19 21 27 27 28 27 26 24 22 21 20 20 19 21
12 16 12 15 16 14 15 14 17 17 21 24 21 32 34 43 38 33 32 26 24 24 29 30 29 28 27 24 24 23 22 22 22
13 17 17 19 19 17 15 18 20 19 20 24 28 28 36 43 46 42 39 31 30 29 30 33 33 31 29 30 28 24 24 24 25
16 20 18 21 22 19 17 18 23 25 27 25 31 30 28 40 39 44 38 35 31 33 31 32 34 33 32 31 28 28 27 25 25
20 20 20 22 23 23 23 25 26 30 28 28 26 25 26 31 36 39 37 38 33 35 34 31 33 33 31 30 30 29 27 26 25
22 22 20 23 23 24 25 24 26 29 29 28 29 21 23 29 33 41 46 41 37 39 38 35 35 36 36 36 32 28 28 28 26
23 23 20 17 17 18 16 17 12 11 15 19 23 30 31 31 37 41 37 46 39 45 42 40 37 36 38 36 33 32 29 27 27
20 22 17 14 15 14 12 10 12 13 18 21 20 20 23 28 33 36 36 46 52 46 44 42 39 38 36 37 35 34 31 28 24
23 22 24 20 16 14 12 10 12 16 18 20 18 16 13 29 31 38 35 34 46 45 48 45 41 39 39 40 38 36 36 33 34
22 26 26 22 17 15 15 12 13 14 13 13 13 12 12 22 27 38 43 25 34 52 41 40 41 39 41 44 44 42 32 30 31
10 13 13 15 14 14 15 13 8 5 6 3 6 4 3 9 19 23 23 34 27 33 27 34 28 22 18 29 24 16 20 11 13
5 10 11 10 9 9 12 14 12 7 4 13 23 16 12 8 4 17 19 27 29 29 27 26 20 17 16 12 9 7 7 6 7
3 4 6 5 7 6 10 12 18 11 12 10 11 14 22 24 26 29 31 27 27 26 19 18 19 18 16 13 13 12 10 8 8
7 5 4 4 4 2 4 8 20 15 13 7 6 6 4 7 18 18 18 19 18 14 13 13 14 14 11 11 11 8 7 8 8

GFSFLT1_700_spd_138.txt.gz
Wind_Speed
7 14 13 12 14 21 21 19 18 15 12 11 7 3 5 11 13 13 11 12 12 14 14 13 15 16 18 19 19 19 18 17 17
6 10 13 11 11 14 20 24 22 17 21 16 12 8 6 8 15 15 14 14 14 12 14 15 16 16 17 18 19 19 22 21 19
4 3 10 11 11 11 12 19 24 22 27 25 20 20 15 9 11 16 17 16 16 14 14 14 15 14 15 16 17 19 18 19 19
6 7 9 13 12 9 10 13 16 22 30 28 28 24 21 18 14 14 19 20 18 20 18 18 17 14 15 16 15 17 16 17 18
10 8 8 13 15 9 7 8 14 19 23 28 22 28 23 20 19 17 18 22 22 21 22 20 18 17 18 17 17 18 17 17 17
5 5 5 5 9 14 13 13 13 15 20 25 29 26 30 30 28 22 19 18 23 26 25 24 23 21 20 20 21 21 20 20 20
4 6 9 9 9 12 13 14 14 16 17 24 22 22 27 30 32 30 27 22 20 24 28 28 26 23 22 23 24 23 23 21 21
9 9 11 15 15 15 15 15 15 14 12 15 16 27 28 19 27 40 34 32 28 25 27 30 29 28 27 26 26 27 26 22 22
13 15 15 19 19 17 19 20 18 18 19 19 22 25 30 29 29 31 29 35 43 34 30 29 33 32 31 29 29 29 26 25 24
18 19 20 22 24 21 20 22 24 21 21 24 28 28 30 32 37 35 40 40 46 42 36 31 32 35 34 32 31 29 29 27 26
19 22 23 22 23 22 22 22 24 27 29 31 30 32 34 36 39 43 40 43 46 50 44 36 34 36 37 35 33 31 31 30 28
20 24 25 24 23 23 26 25 27 30 33 35 36 37 37 38 37 40 37 46 42 44 45 40 35 34 36 37 35 32 30 30 30
20 20 25 24 23 24 22 22 23 22 23 25 26 26 24 25 36 34 35 41 42 50 50 41 39 35 34 35 35 33 32 30 29
22 23 22 21 22 18 18 18 18 19 21 23 26 26 27 30 31 39 42 34 38 40 38 42 41 38 37 37 38 36 35 34 33
21 22 23 22 20 16 16 16 16 17 22 25 27 25 22 27 29 32 34 37 45 44 42 43 43 40 40 40 39 36 36 35 35
20 21 23 22 21 20 18 17 16 19 21 24 25 27 26 17 10 18 22 28 33 41 41 44 44 41 42 38 33 31 31 35 35
10 10 16 19 17 17 17 16 16 14 11 19 18 19 17 16 9 13 24 24 29 26 24 40 34 40 38 35 33 38 31 31 33
3 3 6 7 8 10 12 12 12 4 2 13 22 19 12 8 9 19 14 16 30 19 14 22 28 47 37 32 31 34 19 13 14
6 6 6 6 7 8 7 9 14 9 8 5 7 8 20 27 19 11 15 23 35 32 29 27 29 28 23 18 19 14 14 11 11
2 3 4 5 5 5 6 9 17 14 8 4 5 12 13 9 16 21 29 24 21 18 18 21 27 28 27 18 14 13 12 9 10

GFSFLT1_700_spd_141.txt.gz
Wind_Speed
5 6 12 10 9 15 18 19 18 13 12 12 10 8 7 11 14 14 15 14 11 11 11 13 14 16 16 18 17 17 14 15 16
3 4 8 8 7 7 11 18 20 15 19 16 15 12 10 7 11 15 15 14 14 13 12 12 14 15 16 17 19 20 18 18 19
3 1 4 6 6 6 8 13 22 22 20 21 20 20 17 14 10 11 16 18 17 16 13 13 13 13 14 15 17 18 20 21 21
1 1 3 6 8 8 10 13 17 20 25 19 25 26 22 21 19 16 14 20 21 20 19 17 16 15 14 15 17 16 18 18 17
3 2 4 5 8 10 7 4 10 18 22 23 27 32 28 27 24 22 21 20 23 24 24 23 21 20 18 16 16 17 16 16 17
7 6 3 3 4 9 12 10 10 13 19 23 25 25 28 29 28 28 23 20 21 26 27 27 26 24 20 19 19 20 20 20 19
11 9 6 7 9 10 13 13 13 15 19 21 26 28 28 33 34 31 26 25 24 25 29 31 29 28 26 24 23 23 23 21 21
15 14 11 10 12 15 16 17 14 14 15 18 23 30 32 32 30 31 36 32 30 28 27 32 34 33 31 29 27 25 25 24 24
16 16 14 15 16 18 18 17 17 18 18 16 17 20 23 30 31 31 39 40 41 39 34 32 35 36 35 33 33 28 27 27 26
18 18 18 21 22 22 22 19 19 21 23 22 20 21 23 25 28 36 35 37 38 50 42 39 41 35 35 37 36 33 31 28 29
19 21 22 24 26 26 25 22 20 21 23 24 26 27 28 29 31 33 36 38 44 44 47 48 49 43 37 35 38 36 34 31 31
23 25 26 27 28 27 27 24 22 22 25 26 28 30 32 33 37 42 43 44 44 48 52 48 49 47 43 39 37 38 38 35 34
23 23 23 22 22 24 26 25 24 22 21 22 23 26 29 31 35 36 37 39 44 45 48 50 54 52 48 44 39 37 38 38 35
25 27 27 27 25 22 24 22 19 17 17 19 23 27 31 32 32 34 38 35 36 37 40 46 48 54 51 47 41 36 34 35 35
26 25 24 24 25 23 15 15 13 14 16 20 25 27 30 28 28 31 38 38 33 41 39 39 49 45 48 48 44 36 32 33 33
25 21 19 20 21 19 18 14 13 13 16 21 24 27 27 25 16 24 22 24 32 32 40 37 41 41 50 50 44 40 42 35 33
4 8 11 13 15 16 15 14 14 13 13 12 15 21 23 19 14 14 18 16 21 25 24 27 38 42 35 40 42 44 40 34 31
2 2 4 7 11 13 14 13 13 13 9 9 6 19 24 13 13 12 11 13 20 19 22 20 33 32 36 41 39 44 39 30 24
4 4 6 6 7 9 10 11 13 13 7 1 12 16 15 19 8 14 26 25 15 4 11 23 16 21 26 34 34 32 25 19 21
4 3 2 4 5 7 8 11 16 16 9 1 10 18 7 6 15 20 22 20 16 32 30 31 34 32 24 31 31 33 31 30 27

GFSFLT1_700_spd_144.txt.gz
Wind_Speed
9 12 19 22 23 26 26 24 19 15 13 14 14 13 13 15 16 18 17 17 16 15 15 13 13 14 15 16 15 16 14 14 15
4 6 17 16 19 21 23 24 26 18 16 14 15 14 13 13 16 17 17 17 17 16 15 15 15 15 16 16 15 16 15 16 12
7 8 11 14 15 16 19 22 23 25 21 18 18 19 17 15 13 15 18 20 19 19 17 16 17 18 17 15 14 15 16 16 18
5 5 7 11 12 13 16 18 21 22 26 23 24 25 23 21 19 17 18 21 22 22 21 20 19 18 18 16 15 15 15 16 16
7 5 4 5 8 11 12 14 18 21 29 29 29 28 27 26 26 24 22 21 22 25 24 23 22 21 21 18 16 16 17 16 15
9 9 6 5 5 8 13 14 12 15 21 29 34 34 30 32 31 28 24 26 25 26 27 26 26 25 23 22 20 20 19 19 19
14 13 11 8 7 7 11 16 13 12 15 21 27 30 32 31 34 34 34 31 30 27 27 29 29 29 29 26 24 23 23 22 21
19 17 16 12 10 8 11 14 15 14 14 16 19 22 27 31 32 34 38 36 34 34 30 32 31 32 33 31 30 28 26 24 24
22 21 20 17 14 14 15 18 18 16 15 16 17 19 19 26 33 37 39 38 39 41 40 38 34 34 35 36 34 33 31 28 27
24 22 21 22 20 20 21 22 22 21 19 20 21 21 21 22 23 27 31 33 40 43 45 43 41 39 37 36 37 36 35 33 32
25 23 23 24 23 25 26 28 27 26 23 22 21 21 22 23 25 27 29 34 34 40 40 43 44 46 46 42 39 35 36 36 37
21 22 23 25 26 27 28 29 28 25 23 23 23 25 25 27 29 32 34 35 37 39 41 43 44 46 50 51 46 41 35 35 37
24 27 29 28 27 27 26 27 27 25 22 22 24 24 25 27 29 31 33 35 37 41 45 46 48 48 46 50 49 50 45 41 39
26 30 30 29 30 30 27 24 24 21 19 19 19 20 23 27 30 34 37 37 38 38 42 41 41 49 50 51 52 48 48 45 41
24 25 28 28 26 26 25 23 20 18 16 15 17 22 25 28 31 34 36 36 37 38 40 39 36 40 41 43 51 47 51 49 45
25 25 28 28 25 23 20 18 17 14 12 14 18 21 23 27 29 29 29 27 31 36 36 40 38 39 36 37 40 42 47 47 45
14 10 11 17 15 15 16 17 17 14 13 16 17 21 20 23 25 29 20 26 25 17 20 29 29 31 36 29 33 40 40 44 48
4 4 4 8 12 15 17 17 17 16 16 13 12 13 16 20 20 23 11 14 20 17 18 19 23 25 26 34 37 31 43 37 40
1 3 4 5 7 12 15 16 16 16 14 8 8 15 14 13 17 20 18 27 9 16 19 21 22 20 25 31 30 33 36 42 44
3 3 2 3 4 6 8 10 13 15 12 7 5 17 3 7 21 24 20 32 29 30 28 23 22 27 26 27 27 30 32 35 35

GFSFLT1_700_spd_147.txt.gz
Wind_Speed
13 18 20 22 25 27 30 25 22 17 13 15 17 17 17 17 18 19 19 21 21 19 14 12 11 14 17 15 14 14 12 11 11
11 15 20 22 23 26 30 28 26 21 15 14 14 15 16 17 17 17 18 18 19 19 16 20 16 13 19 17 16 15 14 14 13
9 13 18 20 21 21 22 28 27 25 21 17 15 16 16 15 15 16 18 19 20 21 20 16 22 22 20 19 14 14 15 17 16
9 11 16 19 18 20 19 23 25 25 26 23 20 19 19 19 18 16 17 19 20 20 20 21 20 20 19 19 18 16 16 17 16
11 10 12 15 17 18 19 20 23 23 25 28 30 28 27 27 25 24 23 22 21 21 21 22 23 22 21 20 19 19 18 19 18
10 8 9 10 13 15 17 18 21 24 24 29 30 32 31 30 30 29 28 27 26 24 22 22 24 25 25 23 23 22 21 20 20
10 10 11 10 8 9 10 14 16 14 14 17 21 30 35 35 34 32 33 33 31 29 28 26 26 28 28 28 27 26 26 24 22
13 16 15 15 12 10 8 10 14 16 15 14 17 18 22 28 35 35 35 37 36 37 33 31 30 29 31 32 32 31 29 27 25
16 15 17 19 17 15 13 12 13 16 17 17 15 16 18 22 25 27 30 34 35 38 37 35 36 36 33 33 34 34 33 32 30
15 16 17 22 20 20 18 17 19 20 20 19 19 19 21 22 23 25 26 28 32 35 36 40 41 40 40 39 36 34 36 35 33
18 17 17 23 23 23 22 22 22 24 25 24 23 23 22 22 25 27 25 26 27 29 30 32 34 39 42 42 42 37 36 36 35
18 17 19 24 24 24 23 25 24 27 28 27 24 25 25 25 25 27 30 32 33 34 35 36 37 37 37 38 40 44 39 41 39
20 20 23 22 25 27 27 28 27 27 26 25 26 24 26 27 28 29 30 32 34 35 37 38 40 42 42 41 40 41 41 38 42
21 24 26 28 30 32 30 28 27 24 22 24 21 23 24 25 27 29 31 32 34 37 39 39 41 42 43 44 44 45 45 41 43
24 27 30 27 30 31 27 28 27 25 24 22 21 20 21 24 27 30 32 34 36 37 39 43 41 43 40 41 41 42 45 43 43
27 28 29 30 29 29 24 24 21 20 19 19 18 18 21 26 30 34 35 36 37 36 38 39 39 41 40 39 40 37 36 38 43
24 22 22 20 19 16 15 17 17 18 17 16 16 16 21 24 29 36 39 41 39 30 31 33 34 35 40 42 39 36 34 35 35
13 11 11 10 9 10 12 15 18 18 15 15 13 15 18 23 27 26 30 30 18 19 22 22 23 21 23 22 30 30 32 29 35
7 6 4 6 7 8 12 15 17 16 14 12 11 11 16 15 18 19 26 35 26 11 16 23 24 25 26 26 25 30 31 27 25
6 5 4 4 4 6 9 13 15 16 16 12 8 15 6 9 7 15 21 30 21 23 30 17 6 17 23 22 30 26 31 31 36